TimeEDT,TemperatureF,Dew PointF,Humidity,Sea Level PressureIn,VisibilityMPH,Wind Direction,Wind SpeedMPH,Gust SpeedMPH,PrecipitationIn,Events,Conditions,WindDirDegrees,DateUTC
12:03 AM,65.7,63.3,92,30.14,10.0,Calm,Calm,-,N/A,,Clear,0,2013-08-24 04:03:00
12:23 AM,64.0,63.5,98,30.14,10.0,Calm,Calm,-,N/A,,Clear,0,2013-08-24 04:23:00
12:43 AM,64.0,63.9,99,30.15,10.0,Calm,Calm,-,N/A,,Clear,0,2013-08-24 04:43:00
1:03 AM,63.5,63.5,100,30.15,10.0,Calm,Calm,-,N/A,,Clear,0,2013-08-24 05:03:00
1:23 AM,62.6,62.6,100,30.15,10.0,Calm,Calm,-,N/A,,Clear,0,2013-08-24 05:23:00
1:43 AM,63.0,63.0,100,30.15,10.0,Calm,Calm,-,N/A,,Clear,0,2013-08-24 05:43:00
2:03 AM,63.0,63.0,100,30.15,10.0,Calm,Calm,-,N/A,,Clear,0,2013-08-24 06:03:00
2:23 AM,62.6,62.6,100,30.15,10.0,Calm,Calm,-,N/A,,Clear,0,2013-08-24 06:23:00
2:43 AM,62.1,62.1,100,30.16,10.0,Calm,Calm,-,N/A,,Clear,0,2013-08-24 06:43:00
3:03 AM,61.5,61.5,100,30.16,10.0,Calm,Calm,-,N/A,,Clear,0,2013-08-24 07:03:00
3:23 AM,61.5,61.5,100,30.17,7.0,Calm,Calm,-,N/A,,Clear,0,2013-08-24 07:23:00
3:43 AM,-9999,-9999,N/A,30.17,10.0,Calm,Calm,-,N/A,,Clear,0,2013-08-24 07:43:00
4:03 AM,-9999,-9999,N/A,30.18,10.0,Calm,Calm,-,N/A,,Clear,0,2013-08-24 08:03:00
4:23 AM,-9999,-9999,N/A,30.18,7.0,Calm,Calm,-,N/A,,Clear,0,2013-08-24 08:23:00
4:43 AM,-9999,-9999,N/A,30.18,10.0,Calm,Calm,-,N/A,,Clear,0,2013-08-24 08:43:00
5:03 AM,-9999,-9999,N/A,30.19,7.0,Calm,Calm,-,N/A,,Clear,0,2013-08-24 09:03:00
5:23 AM,-9999,-9999,N/A,30.19,10.0,Calm,Calm,-,N/A,,Clear,0,2013-08-24 09:23:00
5:43 AM,-9999,-9999,N/A,30.20,10.0,Calm,Calm,-,N/A,,Clear,0,2013-08-24 09:43:00
5:53 AM,59.0,57.2,94,30.20,10.0,Calm,Calm,-,N/A,,Clear,0,2013-08-24 09:53:00
6:03 AM,-9999,-9999,N/A,30.20,10.0,Calm,Calm,-,N/A,,Clear,0,2013-08-24 10:03:00
6:23 AM,-9999,-9999,N/A,30.21,10.0,Calm,Calm,-,N/A,,Clear,0,2013-08-24 10:23:00
6:43 AM,-9999,-9999,N/A,30.22,10.0,Calm,Calm,-,N/A,,Clear,0,2013-08-24 10:43:00
6:53 AM,62.6,62.6,100,30.23,10.0,Calm,Calm,-,N/A,,Clear,0,2013-08-24 10:53:00
7:03 AM,61.7,61.7,100,30.23,10.0,Calm,Calm,-,N/A,,Clear,0,2013-08-24 11:03:00
7:23 AM,63.1,63.1,100,30.24,10.0,Calm,Calm,-,N/A,,Clear,0,2013-08-24 11:23:00
7:43 AM,64.4,64.4,100,30.24,10.0,Calm,Calm,-,N/A,,Clear,0,2013-08-24 11:43:00
7:53 AM,64.4,64.4,100,30.25,10.0,Calm,Calm,-,N/A,,Clear,0,2013-08-24 11:53:00
8:50 AM,68.0,62.6,83,30.27,10.0,NE,6.9,-,N/A,,Clear,50,2013-08-24 12:50:00
9:54 AM,73.4,64.4,73,30.28,10.0,NE,6.9,-,N/A,,Clear,50,2013-08-24 13:54:00
10:47 AM,75.2,66.2,73,30.29,10.0,NE,6.9,-,N/A,,Clear,50,2013-08-24 14:47:00
11:50 AM,77.0,66.2,69,30.29,10.0,NE,9.2,-,N/A,,Scattered Clouds,40,2013-08-24 15:50:00
12:04 PM,79.0,65.8,64,30.30,10.0,Calm,Calm,-,N/A,,Clear,0,2013-08-24 16:04:00
12:17 PM,78.4,65.1,63,30.30,10.0,Calm,Calm,-,N/A,,Clear,0,2013-08-24 16:17:00
12:46 PM,80.6,64.4,58,30.30,10.0,ENE,8.1,-,N/A,,Scattered Clouds,60,2013-08-24 16:46:00
1:45 PM,80.6,64.4,58,30.29,10.0,ENE,8.1,-,N/A,,Mostly Cloudy,60,2013-08-24 17:45:00
2:50 PM,82.4,62.6,51,30.29,10.0,East,8.1,-,N/A,,Scattered Clouds,80,2013-08-24 18:50:00
3:50 PM,80.6,60.8,51,30.30,10.0,East,6.9,-,N/A,,Mostly Cloudy,90,2013-08-24 19:50:00
4:50 PM,-9999,-9999,N/A,30.30,10.0,NE,6.9,-,N/A,,Mostly Cloudy,40,2013-08-24 20:50:00
5:50 PM,77.0,62.6,61,30.31,10.0,NE,6.9,-,N/A,,Mostly Cloudy,50,2013-08-24 21:50:00
6:50 PM,75.2,64.4,69,30.31,10.0,East,6.9,-,N/A,,Mostly Cloudy,90,2013-08-24 22:50:00
7:50 PM,69.8,64.4,83,30.33,10.0,East,6.9,-,N/A,,Mostly Cloudy,80,2013-08-24 23:50:00
8:50 PM,68.0,62.6,83,30.35,10.0,East,4.6,-,N/A,,Scattered Clouds,90,2013-08-25 00:50:00
11:05 PM,64.2,62.2,93,30.37,10.0,Calm,Calm,-,N/A,,Clear,0,2013-08-25 03:05:00
11:25 PM,63.7,62.8,97,30.38,10.0,Calm,Calm,-,N/A,,Clear,0,2013-08-25 03:25:00
11:45 PM,63.1,63.0,99,30.38,10.0,Calm,Calm,-,N/A,,Clear,0,2013-08-25 03:45:00